Location: Emblem
(62.4273°N, 6.4710°E)
Time: 15:47:09
(UTC+02:00)

Transit 4A - Pass Details

Date: 08 February 2023
Orbit: 867 x 976 km, 66.8° (Epoch: 31 March)

Event Time Altitude Azimuth Distance (km) Brightness Sun altitude
Rises 19:30:13 0° 241° (WSW) 3,452 11.9 -18.0°
Reaches altitude 10° 19:32:40 10° 242° (WSW) 2,517 11.0 -18.3°
Maximum altitude 19:38:30 82° 331° (NNW) 893 7.8 -19.0°
Enters shadow 19:41:55 27° 57° (ENE) 1,650 8.8 -19.4°
